Hourly Data Report for April 07, 2021

TORONTO CITY
ONTARIO
Current Station Operator: ECCC - MSC

43°40'00.000" N
79°24'00.000" W
112.50 m
6158355
71508
XTO

Download Data

Hourly Data (April 2021)
Hourly Data Report for April 7, 2021
TIME
LST
Temp Definition
°C
Dew Point Definition
°C
Rel Hum Definition
%
Precip. Amount Definition
mm

Wind Dir Definition
10's deg

Wind Spd Definition
km/h
Visibility Definition
km
Stn Press Definition
kPa
Hmdx Definition


Wind Chill Definition


Weather Definition


00:00 8.9 -6.3 33 0.0       100.18     LegendNANA
01:00 9.4 -7.3 30 0.0       100.20     LegendNANA
02:00 9.2 -7.2 31 0.0       100.13     LegendNANA
03:00 8.9 -6.7 33 0.0       100.11     LegendNANA
04:00 8.7 -7.7 31 0.0       100.14     LegendNANA
05:00 8.8 -8.2 29 0.0       100.17     LegendNANA
06:00 8.6 -7.3 32 0.0       100.22     LegendNANA
07:00 10.0 -9.2 25 0.0       100.26     LegendNANA
08:00 10.9 -9.8 22 0.0       100.31     LegendNANA
09:00 11.7 -9.8 21 0.0       100.37     LegendNANA
10:00 13.3 -8.2 21 0.0       100.38     LegendNANA
11:00 13.3 -7.8 22 0.0       100.38     LegendNANA
12:00 14.1 -5.9 24 0.0       100.38     LegendNANA
13:00 14.1 -5.3 26 0.0       100.36     LegendNANA
14:00 14.6 -4.3 27 0.0       100.28     LegendNANA
15:00 15.1 -7.5 20 0.0       100.22     LegendNANA
16:00 15.4 -5.1 24 0.0       100.23     LegendNANA
17:00 14.9 0.9 38 0.0       100.25     LegendNANA
18:00 14.3 1.0 40 0.0       100.22     LegendNANA
19:00 14.3 -1.0 35 0.0       100.20     LegendNANA
20:00 13.9 -0.5 37 0.0       100.22     LegendNANA
21:00 13.6 0.1 39 0.0       100.21     LegendNANA
22:00 13.3 0.3 41 0.0       100.19     LegendNANA
23:00 12.8 0.3 42 0.0       100.17     LegendNANA

Notes on Data Quality.

Legend

  • E = Estimated
  • M = Missing
  • NA = Not Available*
  • [empty] = Indicates an unobserved value
Date modified: